Location: Oberwangen
(47.4286°N, 8.9679°E)
Time: 10:48:30
(UTC+00:00)

Cosmos 1816 Rocket - Pass Details

Date: 21 October 2021
Orbit: 952 x 998 km, 82.9° (Epoch: 08 December)

Event Time Altitude Azimuth Distance (km) Brightness Sun altitude
Rises 18:48:47 0° 356° (N) 3,646 7.7 -24.9°
Reaches altitude 10° 18:51:29 10° 4° (N) 2,699 6.9 -25.4°
Enters shadow 18:55:18 32° 34° (NE) 1,608 5.4 -26.0°
